Time,TemperatureF,DewpointF,PressureIn,WindDirection,WindDirectionDegrees,WindSpeedMPH,WindSpeedGustMPH,Humidity,HourlyPrecipIn,Conditions,Clouds,dailyrainin,SoftwareType,DateUTC
2013-09-29 00:10:00,49.6,45.0,30.09,SSW,202,0.0,-999.0,84,-99.99,,,0.00,Acu-Link.com,2013-09-29 05:10:00,
2013-09-29 00:25:00,48.6,44.9,30.09,South,180,0.0,-999.0,87,-99.99,,,0.00,Acu-Link.com,2013-09-29 05:25:00,
2013-09-29 00:40:00,47.8,44.4,30.09,South,180,0.0,-999.0,88,-99.99,,,0.00,Acu-Link.com,2013-09-29 05:40:00,
2013-09-29 00:56:00,48.2,44.5,30.09,SSE,157,0.0,-999.0,87,-99.99,,,0.00,Acu-Link.com,2013-09-29 05:56:00,
2013-09-29 01:11:00,48.0,44.3,30.09,South,180,0.0,-999.0,87,-99.99,,,0.00,Acu-Link.com,2013-09-29 06:11:00,
2013-09-29 01:26:00,48.9,44.6,30.09,SSE,157,1.1,-999.0,85,-99.99,,,0.00,Acu-Link.com,2013-09-29 06:26:00,
2013-09-29 01:41:00,48.6,44.6,30.09,SSE,157,0.0,-999.0,86,-99.99,,,0.00,Acu-Link.com,2013-09-29 06:41:00,
2013-09-29 01:57:00,48.4,45.0,30.09,South,180,0.0,-999.0,88,-99.99,,,0.00,Acu-Link.com,2013-09-29 06:57:00,
2013-09-29 02:12:00,47.7,44.6,30.09,South,180,0.0,-999.0,89,-99.99,,,0.00,Acu-Link.com,2013-09-29 07:12:00,
2013-09-29 02:27:00,48.6,44.6,30.09,SSW,202,3.2,-999.0,86,-99.99,,,0.00,Acu-Link.com,2013-09-29 07:27:00,
2013-09-29 02:42:00,48.0,44.6,30.09,SSW,202,2.2,-999.0,88,-99.99,,,0.00,Acu-Link.com,2013-09-29 07:42:00,
2013-09-29 02:57:00,47.8,44.4,30.09,South,180,2.2,-999.0,88,-99.99,,,0.00,Acu-Link.com,2013-09-29 07:57:00,
2013-09-29 03:14:00,47.5,44.4,30.08,SSW,202,2.7,-999.0,89,-99.99,,,0.00,Acu-Link.com,2013-09-29 08:14:00,
2013-09-29 03:29:00,48.2,44.5,30.08,SSW,202,3.2,-999.0,87,-99.99,,,0.00,Acu-Link.com,2013-09-29 08:29:00,
2013-09-29 03:44:00,48.7,44.7,30.08,SSW,202,2.7,-999.0,86,-99.99,,,0.00,Acu-Link.com,2013-09-29 08:44:00,
2013-09-29 04:00:00,48.7,44.7,30.08,South,180,2.7,-999.0,86,-99.99,,,0.00,Acu-Link.com,2013-09-29 09:00:00,
2013-09-29 04:15:00,48.2,44.2,30.08,South,180,2.2,-999.0,86,-99.99,,,0.00,Acu-Link.com,2013-09-29 09:15:00,
2013-09-29 04:31:00,47.7,44.3,30.07,SSW,202,2.2,-999.0,88,-99.99,,,0.00,Acu-Link.com,2013-09-29 09:31:00,
2013-09-29 04:46:00,47.5,44.1,30.07,WSW,247,2.2,-999.0,88,-99.99,,,0.00,Acu-Link.com,2013-09-29 09:46:00,
2013-09-29 05:01:00,47.1,43.7,30.08,North,0,0.0,-999.0,88,-99.99,,,0.00,Acu-Link.com,2013-09-29 10:01:00,
2013-09-29 05:16:00,46.2,43.7,30.08,NNW,337,0.0,-999.0,91,-99.99,,,0.00,Acu-Link.com,2013-09-29 10:16:00,
2013-09-29 05:32:00,44.8,42.9,30.08,South,180,0.0,-999.0,93,-99.99,,,0.00,Acu-Link.com,2013-09-29 10:32:00,
2013-09-29 05:47:00,44.4,42.2,30.08,NW,315,0.0,-999.0,92,-99.99,,,0.00,Acu-Link.com,2013-09-29 10:47:00,
2013-09-29 06:02:00,43.5,41.9,30.08,WNW,292,0.0,-999.0,94,-99.99,,,0.00,Acu-Link.com,2013-09-29 11:02:00,
2013-09-29 06:18:00,43.3,42.8,30.08,SSW,202,0.0,-999.0,98,-99.99,,,0.00,Acu-Link.com,2013-09-29 11:18:00,
2013-09-29 06:33:00,44.2,43.7,30.08,South,180,0.0,-999.0,98,-99.99,,,0.00,Acu-Link.com,2013-09-29 11:33:00,
2013-09-29 06:48:00,45.3,43.7,30.08,SE,135,2.7,-999.0,94,-99.99,,,0.00,Acu-Link.com,2013-09-29 11:48:00,
2013-09-29 07:03:00,45.7,43.8,30.08,South,180,3.2,-999.0,93,-99.99,,,0.00,Acu-Link.com,2013-09-29 12:03:00,
2013-09-29 07:18:00,45.9,43.7,30.08,South,180,2.7,-999.0,92,-99.99,,,0.00,Acu-Link.com,2013-09-29 12:18:00,
2013-09-29 07:33:00,44.6,43.0,30.08,SSW,202,2.2,-999.0,94,-99.99,,,0.00,Acu-Link.com,2013-09-29 12:33:00,
2013-09-29 07:49:00,48.6,44.3,30.09,SSW,202,2.2,-999.0,85,-99.99,,,0.00,Acu-Link.com,2013-09-29 12:49:00,
2013-09-29 08:04:00,51.8,45.2,30.10,SSW,202,3.2,-999.0,78,-99.99,,,0.00,Acu-Link.com,2013-09-29 13:04:00,
2013-09-29 08:19:00,55.0,46.1,30.10,SW,225,2.2,-999.0,72,-99.99,,,0.00,Acu-Link.com,2013-09-29 13:19:00,
2013-09-29 08:34:00,58.6,47.3,30.09,SSW,202,1.7,-999.0,66,-99.99,,,0.00,Acu-Link.com,2013-09-29 13:34:00,
2013-09-29 08:49:00,61.9,47.0,30.10,WSW,247,1.7,-999.0,58,-99.99,,,0.00,Acu-Link.com,2013-09-29 13:49:00,
2013-09-29 09:05:00,63.0,48.9,30.10,SW,225,2.2,-999.0,60,-99.99,,,0.00,Acu-Link.com,2013-09-29 14:05:00,
2013-09-29 09:20:00,65.1,49.0,30.10,South,180,3.2,-999.0,56,-99.99,,,0.00,Acu-Link.com,2013-09-29 14:20:00,
2013-09-29 09:35:00,67.1,49.9,30.09,SSW,202,2.7,-999.0,54,-99.99,,,0.00,Acu-Link.com,2013-09-29 14:35:00,
2013-09-29 09:50:00,70.0,50.5,30.09,West,270,4.7,-999.0,50,-99.99,,,0.00,Acu-Link.com,2013-09-29 14:50:00,
2013-09-29 10:05:00,71.1,51.0,30.09,West,270,2.7,-999.0,49,-99.99,,,0.00,Acu-Link.com,2013-09-29 15:05:00,
2013-09-29 10:21:00,73.2,50.6,30.09,SW,225,2.2,-999.0,45,-99.99,,,0.00,Acu-Link.com,2013-09-29 15:21:00,
2013-09-29 10:36:00,75.2,49.9,30.09,WSW,247,3.2,-999.0,41,-99.99,,,0.00,Acu-Link.com,2013-09-29 15:36:00,
2013-09-29 10:51:00,74.1,49.5,30.09,WSW,247,3.7,-999.0,42,-99.99,,,0.00,Acu-Link.com,2013-09-29 15:51:00,
2013-09-29 11:06:00,75.9,47.0,30.08,SSW,202,3.7,-999.0,36,-99.99,,,0.00,Acu-Link.com,2013-09-29 16:06:00,
2013-09-29 11:21:00,76.3,45.9,30.08,SSW,202,4.2,-999.0,34,-99.99,,,0.00,Acu-Link.com,2013-09-29 16:21:00,
2013-09-29 11:37:00,76.1,45.7,30.07,SSE,157,6.8,-999.0,34,-99.99,,,0.00,Acu-Link.com,2013-09-29 16:37:00,
2013-09-29 11:52:00,77.7,44.6,30.07,SSW,202,6.3,-999.0,31,-99.99,,,0.00,Acu-Link.com,2013-09-29 16:52:00,
2013-09-29 12:07:00,78.1,44.1,30.06,South,180,6.8,-999.0,30,-99.99,,,0.00,Acu-Link.com,2013-09-29 17:07:00,
2013-09-29 12:22:00,78.3,46.0,30.06,WSW,247,2.7,-999.0,32,-99.99,,,0.00,Acu-Link.com,2013-09-29 17:22:00,
2013-09-29 12:38:00,77.7,42.9,30.05,South,180,12.5,-999.0,29,-99.99,,,0.00,Acu-Link.com,2013-09-29 17:38:00,
2013-09-29 12:53:00,79.3,45.2,30.04,WSW,247,8.3,-999.0,30,-99.99,,,0.00,Acu-Link.com,2013-09-29 17:53:00,
2013-09-29 13:08:00,79.7,44.6,30.03,South,180,2.7,-999.0,29,-99.99,,,0.00,Acu-Link.com,2013-09-29 18:08:00,
2013-09-29 13:23:00,77.0,45.7,30.02,SSW,202,6.8,-999.0,33,-99.99,,,0.00,Acu-Link.com,2013-09-29 18:23:00,
2013-09-29 13:38:00,78.4,45.2,30.01,SW,225,5.3,-999.0,31,-99.99,,,0.00,Acu-Link.com,2013-09-29 18:38:00,
2013-09-29 13:54:00,77.9,44.8,30.00,South,180,6.8,-999.0,31,-99.99,,,0.00,Acu-Link.com,2013-09-29 18:54:00,
2013-09-29 14:09:00,80.4,47.0,29.99,SW,225,4.7,-999.0,31,-99.99,,,0.00,Acu-Link.com,2013-09-29 19:09:00,
2013-09-29 14:24:00,78.8,44.7,29.98,SW,225,3.2,-999.0,30,-99.99,,,0.00,Acu-Link.com,2013-09-29 19:24:00,
2013-09-29 14:39:00,80.4,44.3,29.97,SW,225,9.9,-999.0,28,-99.99,,,0.00,Acu-Link.com,2013-09-29 19:39:00,
2013-09-29 14:54:00,79.5,44.4,29.97,SSW,202,6.3,-999.0,29,-99.99,,,0.00,Acu-Link.com,2013-09-29 19:54:00,
2013-09-29 15:10:00,81.0,46.6,29.96,SSW,202,8.3,-999.0,30,-99.99,,,0.00,Acu-Link.com,2013-09-29 20:10:00,
2013-09-29 15:25:00,79.3,46.0,29.96,SE,135,8.3,-999.0,31,-99.99,,,0.00,Acu-Link.com,2013-09-29 20:25:00,
2013-09-29 15:40:00,80.4,46.1,29.95,South,180,6.3,-999.0,30,-99.99,,,0.00,Acu-Link.com,2013-09-29 20:40:00,
2013-09-29 15:55:00,77.9,44.8,29.95,SE,135,4.7,-999.0,31,-99.99,,,0.00,Acu-Link.com,2013-09-29 20:55:00,
2013-09-29 16:10:00,77.2,44.2,29.95,South,180,6.8,-999.0,31,-99.99,,,0.00,Acu-Link.com,2013-09-29 21:10:00,
2013-09-29 16:26:00,76.6,43.7,29.94,SW,225,10.9,-999.0,31,-99.99,,,0.00,Acu-Link.com,2013-09-29 21:26:00,
2013-09-29 16:41:00,77.2,43.3,29.95,South,180,8.3,-999.0,30,-99.99,,,0.00,Acu-Link.com,2013-09-29 21:41:00,
2013-09-29 16:56:00,76.1,43.3,29.94,South,180,9.4,-999.0,31,-99.99,,,0.00,Acu-Link.com,2013-09-29 21:56:00,
2013-09-29 17:11:00,74.5,43.5,29.94,SSW,202,7.3,-999.0,33,-99.99,,,0.00,Acu-Link.com,2013-09-29 22:11:00,
2013-09-29 17:27:00,73.8,44.4,29.94,South,180,5.8,-999.0,35,-99.99,,,0.00,Acu-Link.com,2013-09-29 22:27:00,
2013-09-29 17:42:00,73.0,44.5,29.94,SSE,157,5.8,-999.0,36,-99.99,,,0.00,Acu-Link.com,2013-09-29 22:42:00,
2013-09-29 17:57:00,72.1,44.4,29.93,South,180,5.8,-999.0,37,-99.99,,,0.00,Acu-Link.com,2013-09-29 22:57:00,
2013-09-29 18:12:00,71.1,44.9,29.93,South,180,6.3,-999.0,39,-99.99,,,0.00,Acu-Link.com,2013-09-29 23:12:00,
2013-09-29 18:27:00,70.0,44.6,29.93,SW,225,5.3,-999.0,40,-99.99,,,0.00,Acu-Link.com,2013-09-29 23:27:00,
2013-09-29 18:43:00,68.9,45.5,29.92,South,180,4.7,-999.0,43,-99.99,,,0.00,Acu-Link.com,2013-09-29 23:43:00,
2013-09-29 18:58:00,67.1,45.6,29.92,SW,225,4.7,-999.0,46,-99.99,,,0.00,Acu-Link.com,2013-09-29 23:58:00,
2013-09-29 19:13:00,65.8,45.6,29.92,SSW,202,4.7,-999.0,48,-99.99,,,0.00,Acu-Link.com,2013-09-30 00:13:00,
2013-09-29 19:28:00,64.6,45.0,29.92,SSE,157,4.2,-999.0,49,-99.99,,,0.00,Acu-Link.com,2013-09-30 00:28:00,
2013-09-29 19:43:00,64.6,44.5,29.92,SSW,202,3.7,-999.0,48,-99.99,,,0.00,Acu-Link.com,2013-09-30 00:43:00,
2013-09-29 20:14:00,62.8,44.9,29.92,South,180,4.2,-999.0,52,-99.99,,,0.00,Acu-Link.com,2013-09-30 01:14:00,
2013-09-29 20:29:00,61.7,45.4,29.92,SSW,202,3.2,-999.0,55,-99.99,,,0.00,Acu-Link.com,2013-09-30 01:29:00,
2013-09-29 20:44:00,61.2,45.8,29.93,South,180,4.7,-999.0,57,-99.99,,,0.00,Acu-Link.com,2013-09-30 01:44:00,
2013-09-29 20:59:00,61.0,45.7,29.94,SSE,157,5.3,-999.0,57,-99.99,,,0.00,Acu-Link.com,2013-09-30 01:59:00,
2013-09-29 21:15:00,60.6,45.3,29.94,SSE,157,4.2,-999.0,57,-99.99,,,0.00,Acu-Link.com,2013-09-30 02:15:00,
2013-09-29 21:30:00,60.6,46.2,29.94,SSW,202,4.7,-999.0,59,-99.99,,,0.00,Acu-Link.com,2013-09-30 02:30:00,
2013-09-29 21:45:00,59.7,46.7,29.94,South,180,6.8,-999.0,62,-99.99,,,0.00,Acu-Link.com,2013-09-30 02:45:00,
2013-09-29 22:00:00,59.0,46.8,29.94,South,180,4.7,-999.0,64,-99.99,,,0.00,Acu-Link.com,2013-09-30 03:00:00,
2013-09-29 22:16:00,58.5,47.6,29.94,SSW,202,3.7,-999.0,67,-99.99,,,0.00,Acu-Link.com,2013-09-30 03:16:00,
2013-09-29 22:31:00,58.1,47.6,29.94,South,180,5.3,-999.0,68,-99.99,,,0.00,Acu-Link.com,2013-09-30 03:31:00,
2013-09-29 22:46:00,57.7,48.0,29.94,South,180,4.7,-999.0,70,-99.99,,,0.00,Acu-Link.com,2013-09-30 03:46:00,
2013-09-29 23:01:00,57.4,48.4,29.93,South,180,5.3,-999.0,72,-99.99,,,0.00,Acu-Link.com,2013-09-30 04:01:00,
2013-09-29 23:16:00,57.0,48.4,29.93,SSW,202,6.3,-999.0,73,-99.99,,,0.00,Acu-Link.com,2013-09-30 04:16:00,
2013-09-29 23:32:00,56.8,48.6,29.93,South,180,4.2,-999.0,74,-99.99,,,0.00,Acu-Link.com,2013-09-30 04:32:00,
2013-09-29 23:47:00,55.9,48.8,29.94,SSW,202,3.2,-999.0,77,-99.99,,,0.00,Acu-Link.com,2013-09-30 04:47:00,